Tracking 31032 objects as of 13-Jul-2025
HD Live streaming from Space Station
objects crossing your sky now

CZ-6A DEB

Track CZ-6A DEB now!
10-day predictions


NORAD ID: 54397
Int'l Code: 2022-151DV
Perigee: 531.2 km
Apogee: 648.1 km
Inclination: 98.5 °
Period: 96.3 minutes
Semi major axis: 6960 km
RCS: Unknown
Launch date: November 11, 2022
Source: People's Republic of China (PRC)
Launch site: Taiyaun Space Center, China (TSC)

Note: This is SATELLITE DEBRIS
Your satellite tracking list
Your tracking list is empty




NASA's NSSDC Master Catalog

Two Line Element Set (TLE):
1 54397U 22151DV  25194.62407041  .00021058  00000-0  17991-2 0  9999
2 54397  98.4842 257.6984 0083940  73.6240 287.4186 14.94948545142817
Source of the keplerian elements: AFSPC